Погода Сангары

Погода Сангары : погода сейчас, прогноз погоды и архив. Всё, что Вы хотите узнать о погоде Сангары!

Хотите узнать прогноз погоды Сангары? Тогда Вам сюда: Погода Сангары

Поиск расширенной информации на нашем сайте:

Другие новости

Новости СМИ2

Главная страница сайта

Новости сайта

02.10.2013

Напоминаем, что на нашем новом сайте вы можете получить высокодетализированные прогнозы погоды по пунктам России, СНГ и мира (включающие важные для авиации метеовеличины, такие как направление и скорость ветра, видимость, явления погоды, количество и форма облачности, нижняя и верхняя граница облачности), а также ознакомиться с разнообразными материалами по авиационной метеорологии и подборкой полезных ссылок на эту тему.

Сайт Метеоцентр.Азия посвящён разработке технологий оптимизации авиаметеорологического обслуживания, включая проектирование и перспективное создание нескольких автоматизированных авиаметеорологических систем:
- система выпуска высокодетальных прогностических карт явлений погоды для нижнего воздушного пространства по России и ближнему зарубежью;
- система верификации прогнозов TAF (выпускаемых синоптиками официальных АМСГ РФ и ближнего зарубежья) и AUTOTAF (выпускаемых сайтом Метеоцентр.Азия) - выявление ошибок, онлайн-сопоставление с фактической погодой METAR, автоматическое внесение коррективов в прогнозы при резком отклонении фактической погоды от прогноза, подсчёт оправдываемости прогнозов по элементам и в целом;
- система обработки, анализа и отображения авиаметеорологической информации для применения провайдерами метеорологической информации.

Рекомендуем: лесные жители белфакс

Погода Сангары - сегодня

Время (UTC), дата Ветер
(°,м/с) 
Видим.   Явления Облачность Т
(°С)
Тd
(°С)
f(%) Тe
(°С)
Pmin
(гПа)
dP
(гПа)
Po
(мм)
O2
(г/м3)
Тmin Tmax R s Состояние
почвы
15 24.02.17 080 (В) 10 км    ясно 
-27.6 -40.5 28 -28  1017.3  -0.6  752  339           
18 24.02.17 тихо ()   10 км    4/0 верхняя 
[Ci fib]
-38.8 -41.8 73 -39  1016.9  -0.5  752  355           
21 24.02.17 050 (СВ) 10 км    ясно 
-38.5 -41.4 74 -40  1016.8  -0.1  752  355           
00 25.02.17 900 () 20000 м    ясно 
-37.3 -40.1 75 -38  1016.4  -0.3  752  353  -40.9      28  равномерный
сухой снег
100% 
03 25.02.17 170 (Ю) 20000 м    1/0 верхняя 
[Ci fib]
-32.3 -35.3 75 -36  1015.9  -0.2  752  345           
06 25.02.17 170 (Ю) 20000 м    1/0 верхняя 
[Ci fib]
-28.1 -31.9 70 -32  1015.2  -0.5  751  339           
09 25.02.17 110 (В) 20000 м    ясно 
-26.4 -30.3 69 -30  1014  -1.1  750  337           
12 25.02.17 100 (В) 10 км    ясно 
-26.4 -30.3 69 -35  1013.1  -0.9  750  336    -26.4       
15 25.02.17 100 (В) 5{10}  10 км    ясно 
-27 -30.9 69 -35  1011.9  -1.2  749  337           
18 25.02.17 100 (В) 7-12{13}  10 км  слаб. снег  10/0 средняя, верхняя 
[Ac trans|Cs]
-26.5 -29.7 74 -36  1010.1  -1.7  748  335           
21 25.02.17 110 (В) 7-12{14}  4000 м  слаб. снег  10/0 средняя 
[As op]
-25.8 -29.7 70 -35  1009.1  -0.9  747  334           
00 26.02.17 100 (В) 7-12{14}  4000 м  слаб. снег  10/3 1000 м средняя 
[Sc|As op]
-25 -28.1 75 -34  1009.1  747  333  -27    28  равномерный
сухой снег
100% 
03 26.02.17 100 (В) 7-12{14}  10 км  слаб. ливневой снег  10/6 1020 м кучево-дожд., средняя 
[Cb calv|Ac und]
-22.5 -26.5 70 -31  1009.2  0.2  747  330           
06 26.02.17 150 (ЮВ) 4{12}  10 км  слаб. ливневой снег  10/8 930 м кучево-дожд., средняя, верхняя 
[Cb calv|Ac trans|Ci fib]
-22.3 -25.6 74 -28  1010.8  1.5  748  330           
09 26.02.17 150 (ЮВ) 20000 м  {ливн. осадки}  10/0 средняя, верхняя 
[Ac trans|Ci fib]
-23 -26.3 74 -26  1012.6  1.8  750  332           
12 26.02.17 100 (В) 10 км  слаб. снег{ливн. осадки}  10/0 
-28.5 -31.7 74 -29  1014.3  1.4  751  340    -21.1     
15 26.02.17 070 (В) 10 км  слаб. снег  10/0 верхняя 
[Cs]
-27.6 -30.7 75 -28  1017.3  751  338           
18 26.02.17 060 (СВ) 10 км  в посл. час снег  10/0 верхняя 
[Cs]
-28.6 -31 80 -32  1016.2  1.8  752  340           
21 26.02.17 060 (СВ) 10 км    10/0 верхняя 
[Ci fib]
-29.3 -31.8 79 -33  1018.2  753  342           
00 27.02.17 050 (СВ) 20000 м    10/0 верхняя 
[Ci fib]
-30 -32.4 80 -34  1020.2  755  344  -32    0.0  28  равномерный
сухой снег
100% 
03 27.02.17 тихо ()   20000 м  слаб. снег  10/5 2000 м средняя, верхняя 
[Ac trans|Cs]
-27.5 -30 79 -28  1021.4  1.3  756  341           
06 27.02.17 180 (Ю) 20000 м  {снег}  ясно 
-24 -27.2 75 -24  1022.6  1.4  757  336           
09 27.02.17 тихо ()   20000 м    1/0 верхняя 
[Ci fib]
-26.2 -29.4 74 -26  1024.9  2.1  759  340           
12 27.02.17 тихо ()   10 км    ясно 
-29.6 -32 80 -30  1027.5  2.4  760  346    -22.9  0.0     
15 27.02.17 280 (З) 10 км    ясно 
-33.5 -36.6 74 -34  1028.7  761  352           
Время (UTC), дата Ветер
(°,м/с) 
Видим.   Явления Облачность Т
(°С)
Тd
(°С)
f(%) Тe
(°С)
Pmin
(гПа)
dP
(гПа)
Po
(мм)
O2
(г/м3)
Тmin Tmax R s Состояние
почвы

Для получения пояснительной информации подведите курсор к названию столбца.

ПОГОДА Сангары - архив

Всё, что Вы хотите узнать о погоде Сангары - удобно и подробно!

Выберите нужную дату (начиная с 1 января 2015* года) и нажмите кнопку "Найти".
Будут отображены архивные сводки погоды по пункту Сангары, начиная с указанной даты.


Отображать данные в формате CSV (для использования в таблицах Excel)


Внимание! Наш архив погоды предназначен исключительно для личного некоммерческого использования в познавательных целях. Если Вам необходимы официальные справки о состоянии погоды (для производственных, юридических, коммерческих и т.п. целей), обращайтесь в органы Росгидромета.

*Примечание: данная дата относится к архиву по метеостанциям СССР (Россия, СНГ, Балтия).
Архив по метеостанциям Зарубежной Европы и Азии (кроме Китая) хранится 10 дней, по другим регионам земного шара (Китай, Африка, Америка, Австралия, Океания) - 1 день.

Сангары - район местоположения метеостанции


Название, широта, долгота, высота метеостанции:
Сангары 64°ш. 127.5°д. 96 м над ур. моря [Российская Федерация]

Дополнительная информация

В oтличие oт бoльшинства пoгoдных сайтoв мы публикуем пoдрoбную метеoинфoрмацию в детальнoм прoфессиoнальнoм фoрмате.

Характеристики температуры и влажнoсти вoздуха измеряются на высoте 2 м в тени вдали oт зданий и деревьев.
Скoрoсть ветра измеряется на высoте 10 м (на урoвне рoста челoвека скoрoсть ветра ниже в 1.5-2 раза). Если метеoстанция нахoдится в гoрoде или в лесу, тo скoрoсть ветра занижена на 2-4 м/с пo сравнению с oткрытым местoм. Скoрoсть ветра над акватoриями крупных рек и oзёр, а также на вершинах хoлмoв на 2-5 м/с выше, чем в oбычных услoвиях.
Атмoсфернoе давление в разных тoчках местнoсти мoжет значительнo oтличаться oт давления на метеoстанции, в зависимoсти oт услoвий рельефа (при пoдъёме на 10 м давление пoнижается примернo на 1 мм рт.ст.).